TimeEDT,TemperatureF,Dew PointF,Humidity,Sea Level PressureIn,VisibilityMPH,Wind Direction,Wind SpeedMPH,Gust SpeedMPH,PrecipitationIn,Events,Conditions,WindDirDegrees,DateUTC
12:15 AM,68.5,61.0,77,30.03,10.0,ENE,5.8,-,N/A,,Clear,60,2013-09-09 04:15:00
12:35 AM,67.6,60.8,79,30.04,10.0,Calm,Calm,-,N/A,,Clear,0,2013-09-09 04:35:00
12:55 AM,67.8,60.8,78,30.04,10.0,Calm,Calm,-,N/A,,Clear,0,2013-09-09 04:55:00
1:15 AM,67.5,60.6,79,30.04,10.0,ENE,3.5,-,N/A,,Clear,60,2013-09-09 05:15:00
1:35 AM,66.6,60.1,80,30.04,10.0,ENE,3.5,-,N/A,,Clear,60,2013-09-09 05:35:00
1:55 AM,65.8,59.9,81,30.04,10.0,ENE,3.5,-,N/A,,Clear,70,2013-09-09 05:55:00
2:15 AM,66.0,59.9,81,30.04,10.0,ENE,4.6,-,N/A,,Clear,70,2013-09-09 06:15:00
2:35 AM,66.4,60.1,80,30.04,7.0,Calm,Calm,-,N/A,,Clear,0,2013-09-09 06:35:00
2:55 AM,65.7,59.9,82,30.04,10.0,Calm,Calm,-,N/A,,Clear,0,2013-09-09 06:55:00
3:15 AM,65.5,59.7,82,30.04,10.0,NNE,3.5,-,N/A,,Clear,20,2013-09-09 07:15:00
3:35 AM,66.0,59.7,80,30.03,10.0,Calm,Calm,-,N/A,,Clear,0,2013-09-09 07:35:00
3:55 AM,65.5,59.4,81,30.04,10.0,NE,3.5,-,N/A,,Clear,40,2013-09-09 07:55:00
4:15 AM,64.2,59.0,83,30.04,10.0,NE,3.5,-,N/A,,Clear,50,2013-09-09 08:15:00
4:35 AM,64.2,59.0,83,30.04,10.0,Calm,Calm,-,N/A,,Clear,0,2013-09-09 08:35:00
4:55 AM,64.2,59.0,83,30.04,10.0,Calm,Calm,-,N/A,,Clear,0,2013-09-09 08:55:00
5:15 AM,63.7,59.0,85,30.04,10.0,East,3.5,-,N/A,,Clear,80,2013-09-09 09:15:00
5:35 AM,63.1,58.5,85,30.04,10.0,East,3.5,-,N/A,,Clear,90,2013-09-09 09:35:00
5:55 AM,62.8,58.5,86,30.03,7.0,Calm,Calm,-,N/A,,Clear,0,2013-09-09 09:55:00
6:15 AM,62.8,58.5,86,30.04,7.0,Calm,Calm,-,N/A,,Clear,0,2013-09-09 10:15:00
6:35 AM,62.6,58.3,86,30.04,7.0,NE,4.6,-,N/A,,Clear,40,2013-09-09 10:35:00
6:55 AM,62.2,57.9,86,30.04,10.0,ENE,4.6,-,N/A,,Clear,70,2013-09-09 10:55:00
7:15 AM,61.9,57.7,86,30.05,7.0,East,4.6,-,N/A,,Clear,80,2013-09-09 11:15:00
7:35 AM,61.9,57.7,86,30.06,7.0,NE,4.6,-,N/A,,Clear,50,2013-09-09 11:35:00
7:55 AM,62.8,58.5,86,30.05,7.0,ENE,3.5,-,N/A,,Scattered Clouds,60,2013-09-09 11:55:00
8:15 AM,63.9,59.2,85,30.05,10.0,Calm,Calm,-,N/A,,Mostly Cloudy,0,2013-09-09 12:15:00
8:35 AM,65.3,59.9,83,30.06,10.0,Calm,Calm,-,N/A,,Mostly Cloudy,0,2013-09-09 12:35:00
8:55 AM,66.6,60.8,82,30.06,10.0,Calm,Calm,-,N/A,,Overcast,0,2013-09-09 12:55:00
9:15 AM,67.8,61.7,81,30.07,10.0,Calm,Calm,-,N/A,,Overcast,0,2013-09-09 13:15:00
9:35 AM,69.6,62.8,79,30.06,7.0,South,5.8,-,N/A,,Overcast,170,2013-09-09 13:35:00
9:55 AM,72.3,64.0,75,30.06,10.0,South,6.9,-,N/A,,Scattered Clouds,180,2013-09-09 13:55:00
10:15 AM,75.7,65.1,69,30.06,10.0,South,8.1,-,N/A,,Clear,180,2013-09-09 14:15:00
10:35 AM,76.6,65.3,68,30.06,10.0,SSW,6.9,-,N/A,,Clear,200,2013-09-09 14:35:00
10:55 AM,78.8,65.1,63,30.06,10.0,SSW,5.8,-,N/A,,Clear,200,2013-09-09 14:55:00
11:15 AM,80.1,65.3,61,30.06,10.0,South,6.9,-,N/A,,Clear,180,2013-09-09 15:15:00
11:35 AM,82.4,65.3,56,30.06,10.0,SSW,5.8,-,N/A,,Clear,210,2013-09-09 15:35:00
11:55 AM,84.7,64.6,51,30.06,10.0,South,11.5,-,N/A,,Clear,190,2013-09-09 15:55:00
12:15 PM,86.0,63.9,47,30.06,10.0,SSW,5.8,-,N/A,,Clear,200,2013-09-09 16:15:00
12:35 PM,87.4,62.6,43,30.05,10.0,SSW,9.2,17.3,N/A,,Clear,200,2013-09-09 16:35:00
12:55 PM,87.8,63.0,43,30.04,10.0,SSW,9.2,-,N/A,,Scattered Clouds,200,2013-09-09 16:55:00
1:15 PM,88.5,62.2,41,30.04,10.0,South,11.5,19.6,N/A,,Mostly Cloudy,190,2013-09-09 17:15:00
1:35 PM,89.2,61.0,39,30.03,10.0,SSW,11.5,18.4,N/A,,Mostly Cloudy,200,2013-09-09 17:35:00
1:55 PM,89.6,60.6,38,30.03,10.0,SW,9.2,-,N/A,,Scattered Clouds,220,2013-09-09 17:55:00
2:15 PM,89.4,60.6,38,30.02,10.0,SSW,11.5,17.3,N/A,,Scattered Clouds,210,2013-09-09 18:15:00
2:35 PM,90.3,60.3,36,30.01,10.0,SSW,11.5,17.3,N/A,,Scattered Clouds,210,2013-09-09 18:35:00
2:55 PM,90.7,60.1,36,30.00,10.0,South,12.7,-,N/A,,Mostly Cloudy,190,2013-09-09 18:55:00
3:15 PM,90.7,60.1,36,30.00,10.0,South,12.7,20.7,N/A,,Mostly Cloudy,190,2013-09-09 19:15:00
3:35 PM,90.0,60.6,37,30.00,10.0,South,10.4,-,N/A,,Mostly Cloudy,190,2013-09-09 19:35:00
3:55 PM,88.0,60.8,40,30.01,10.0,SW,10.4,-,N/A,Rain,Light Rain,220,2013-09-09 19:55:00
4:15 PM,87.3,61.9,42,29.99,10.0,South,6.9,-,N/A,,Overcast,180,2013-09-09 20:15:00
4:35 PM,88.7,62.6,42,29.98,10.0,South,11.5,-,N/A,,Scattered Clouds,190,2013-09-09 20:35:00
4:55 PM,90.1,61.5,38,29.98,10.0,South,11.5,18.4,N/A,,Clear,190,2013-09-09 20:55:00
5:15 PM,89.1,61.9,40,29.98,10.0,South,11.5,-,N/A,,Scattered Clouds,180,2013-09-09 21:15:00
5:35 PM,88.7,62.1,41,29.98,10.0,South,11.5,-,N/A,,Mostly Cloudy,190,2013-09-09 21:35:00
5:55 PM,88.5,62.2,41,29.98,10.0,South,9.2,16.1,N/A,,Mostly Cloudy,190,2013-09-09 21:55:00
6:15 PM,87.6,62.4,43,29.98,10.0,South,10.4,-,N/A,,Scattered Clouds,190,2013-09-09 22:15:00
6:35 PM,86.7,62.6,44,29.98,10.0,South,11.5,-,N/A,,Scattered Clouds,190,2013-09-09 22:35:00
6:55 PM,86.2,63.1,46,29.98,10.0,South,11.5,16.1,N/A,,Scattered Clouds,190,2013-09-09 22:55:00
7:15 PM,85.3,62.8,47,29.99,10.0,South,8.1,-,N/A,,Scattered Clouds,190,2013-09-09 23:15:00
7:35 PM,83.5,63.7,51,29.99,10.0,South,6.9,-,N/A,,Scattered Clouds,190,2013-09-09 23:35:00
7:55 PM,81.9,64.0,55,29.99,10.0,South,8.1,-,N/A,,Clear,190,2013-09-09 23:55:00
8:15 PM,80.6,64.4,58,30.00,10.0,South,5.8,-,N/A,,Clear,170,2013-09-10 00:15:00
8:35 PM,78.1,65.3,65,30.01,10.0,South,6.9,-,N/A,,Clear,170,2013-09-10 00:35:00
8:55 PM,77.5,65.5,66,30.01,10.0,South,6.9,-,N/A,,Clear,170,2013-09-10 00:55:00
9:15 PM,77.0,65.7,68,30.01,10.0,South,6.9,-,N/A,,Clear,170,2013-09-10 01:15:00
9:35 PM,76.8,65.7,68,30.02,10.0,South,6.9,-,N/A,,Clear,170,2013-09-10 01:35:00
9:55 PM,76.1,65.7,70,30.03,10.0,South,5.8,-,N/A,,Clear,170,2013-09-10 01:55:00
10:15 PM,75.4,65.7,72,30.03,10.0,South,5.8,-,N/A,,Clear,180,2013-09-10 02:15:00
10:35 PM,75.0,65.7,73,30.02,10.0,South,5.8,-,N/A,,Clear,180,2013-09-10 02:35:00
10:55 PM,75.0,65.7,73,30.03,10.0,South,5.8,-,N/A,,Clear,170,2013-09-10 02:55:00
11:15 PM,74.3,65.7,74,30.03,10.0,South,6.9,-,N/A,,Clear,170,2013-09-10 03:15:00
11:35 PM,74.7,65.7,73,30.04,10.0,South,6.9,-,N/A,,Clear,180,2013-09-10 03:35:00
11:55 PM,75.2,65.5,72,30.04,10.0,South,5.8,-,N/A,,Mostly Cloudy,180,2013-09-10 03:55:00